Wind_Speed
15 16 16 16 16 16 15 15 16 16 16 16 17 17 19 20 21 22 22 23 24 26 27 28 29 30 31 31 33 33 33 33 33 33 34 33 33 34 35 34 34 35 36
14 15 15 15 15 14 14 14 14 15 16 17 18 18 19 20 21 22 23 24 26 27 28 29 29 30 30 31 31 32 32 33 32 32 32 32 32 32 32 33 33 34 35
14 15 15 14 14 14 14 15 16 16 17 18 19 19 20 21 22 23 24 25 27 28 29 29 28 29 30 31 31 31 32 32 32 32 32 31 32 32 33 33 33 33 34
14 14 14 13 13 13 15 16 16 17 17 18 18 19 20 21 23 23 24 26 27 28 28 28 28 29 30 30 31 30 30 31 31 31 31 30 31 32 33 33 33 33 33
14 13 13 13 13 14 15 16 17 17 17 18 19 19 20 22 23 24 24 26 27 28 28 27 28 29 29 30 30 29 29 29 29 30 30 30 30 31 31 32 31 32 32
13 12 12 13 14 14 15 16 16 17 17 17 18 19 20 21 23 24 25 26 27 27 27 28 28 29 29 29 29 28 28 27 28 28 28 28 28 29 29 29 30 30 30
12 12 12 13 14 14 15 16 16 17 17 18 18 19 20 21 23 25 26 26 26 27 27 28 28 29 28 27 27 26 26 26 26 26 26 26 26 25 26 27 27 27 27
11 12 12 13 14 14 15 16 16 17 17 18 19 19 20 22 23 24 26 26 26 27 27 27 27 26 26 26 26 26 26 26 26 26 25 24 24 23 24 23 23 24 24
12 13 13 13 14 15 15 15 16 16 17 18 19 20 22 23 25 25 27 27 26 26 26 26 25 26 25 25 25 25 25 25 25 25 24 24 23 22 21 21 21 22 22
11 12 12 13 14 14 15 15 15 16 17 18 20 22 23 24 25 26 27 26 26 25 26 26 25 25 25 25 25 24 24 24 24 23 23 23 22 21 19 18 18 18 18
11 12 12 13 13 14 15 15 16 16 17 19 20 22 23 24 25 26 25 25 25 26 26 26 26 25 25 24 24 24 24 23 23 23 22 21 21 20 19 18 17 17 17
11 12 12 12 12 14 15 15 16 17 17 19 21 22 23 24 25 25 25 26 26 26 26 26 25 25 24 24 25 25 24 24 23 23 22 21 20 19 18 18 18 17 18
11 11 11 12 12 13 14 15 16 18 19 20 22 22 23 24 25 26 26 27 27 27 26 26 25 25 24 24 24 24 24 23 23 23 22 21 20 19 18 18 18 17 16
12 11 11 12 12 13 13 15 17 18 19 20 22 22 23 23 24 25 26 26 27 27 27 27 25 25 24 24 24 24 23 23 23 22 21 20 20 19 18 17 16 15 15
11 10 11 11 12 12 14 15 17 18 19 20 21 22 23 23 24 25 26 27 27 28 28 27 26 25 24 24 24 24 23 23 22 21 20 20 19 18 18 16 15 15 15
11 11 11 12 12 12 14 15 17 18 19 20 21 22 23 23 24 25 26 27 27 28 29 28 27 26 25 24 24 24 23 23 22 21 20 19 18 18 18 17 16 15 15
10 11 11 11 11 12 13 15 16 17 18 19 20 21 22 23 24 25 26 27 28 29 30 29 28 27 25 24 24 23 23 22 21 21 20 19 19 18 18 17 16 16 15
9 10 11 11 11 12 13 14 15 16 16 17 19 21 22 23 24 25 26 27 28 29 30 30 29 27 26 25 25 24 23 22 21 21 20 19 19 19 18 18 17 16 15
10 11 12 12 12 13 13 14 14 15 16 17 19 20 21 22 23 24 26 27 28 28 29 29 28 27 26 26 25 24 23 23 22 22 21 20 19 18 18 17 16 16 15
11 11 11 12 12 12 12 13 13 14 15 16 18 19 20 22 23 25 26 27 28 28 28 28 28 27 27 26 26 25 24 23 23 22 21 20 19 19 18 17 16 15 15
11 10 10 11 11 11 11 11 12 13 15 16 18 19 20 22 23 25 26 27 28 28 28 28 27 27 27 27 27 26 25 24 23 22 21 20 20 19 18 17 16 15 15
10 10 10 10 10 10 10 10 11 13 15 16 18 19 21 22 23 24 26 27 28 28 28 27 27 27 27 27 27 27 26 25 23 22 21 20 20 19 18 17 16 16 16
10 10 10 10 10 10 10 11 13 14 15 17 17 19 20 22 23 24 26 27 28 29 28 28 28 27 26 27 27 27 27 26 24 23 21 21 20 19 18 18 17 16 15
9 9 10 10 10 10 11 12 13 14 15 16 17 18 19 21 22 24 25 27 28 28 29 28 28 27 26 26 27 27 28 27 25 24 23 22 20 19 19 19 18 17 15
8 9 9 9 10 11 11 12 12 14 14 15 16 18 19 20 21 23 24 25 27 29 29 28 28 28 27 27 27 28 28 27 26 25 24 23 22 21 20 20 19 18 16
9 9 9 9 9 10 11 11 12 13 15 15 16 17 18 18 20 21 22 24 26 27 28 28 28 28 28 27 27 27 28 27 26 25 25 24 23 23 22 21 20 19 18
Wind_Direction
309 309 309 308 305 303 304 302 300 302 307 308 307 307 308 308 307 306 304 304 307 307 306 304 303 302 301 298 296 295 294 292 290 288 286 283 279 274 272 270 267 264 262
314 313 313 313 310 310 313 312 310 309 310 312 310 311 312 311 309 309 309 310 310 310 309 308 307 306 304 303 300 298 297 294 291 290 288 284 279 275 272 270 267 265 262
322 322 321 321 317 317 319 318 316 314 313 312 309 310 312 313 312 313 314 313 314 313 312 311 310 309 308 307 304 300 298 295 293 292 289 286 281 277 274 273 269 265 262
324 327 326 323 321 321 321 320 319 317 316 315 313 313 314 315 316 316 316 315 316 316 315 314 313 312 311 310 308 305 301 298 295 294 291 288 283 279 276 275 272 267 263
322 326 327 326 324 324 322 323 325 324 321 320 319 319 320 319 320 320 319 319 318 317 316 314 314 314 313 313 311 309 306 302 300 298 295 291 286 282 278 275 272 268 265
318 323 327 327 326 328 329 328 328 328 326 325 326 325 324 323 323 323 322 321 320 318 317 317 316 314 314 314 314 313 311 307 304 302 299 295 289 284 281 277 272 268 265
318 320 323 327 328 329 331 331 332 332 331 331 330 329 329 328 327 325 324 323 323 322 320 319 317 316 316 316 318 317 315 313 310 308 304 300 295 289 284 279 275 272 268
321 323 323 329 332 330 331 333 334 335 336 336 335 333 332 332 331 330 327 325 325 324 324 322 320 319 319 320 321 320 317 315 313 312 310 307 302 296 290 284 278 273 270
322 322 326 331 334 334 334 335 337 338 337 338 339 336 334 333 333 333 331 331 330 329 328 326 323 322 322 323 322 321 321 319 317 315 313 311 308 303 296 288 282 276 272
322 323 325 328 330 334 336 337 338 337 337 338 339 338 337 337 338 337 336 336 335 333 331 330 327 326 325 324 323 323 324 323 321 319 317 315 313 309 304 296 291 282 274
321 322 324 325 327 332 336 337 337 339 340 341 342 342 342 342 340 340 340 340 338 336 334 331 330 329 329 327 327 327 327 326 325 324 322 319 316 314 310 304 296 287 280
318 319 323 325 329 333 335 336 338 342 344 344 344 344 344 345 344 344 343 342 341 339 338 336 334 333 332 331 331 330 330 329 327 327 324 321 319 317 313 309 305 297 287
314 317 320 324 328 331 334 337 339 342 344 345 344 344 344 345 345 346 345 345 345 344 342 340 339 337 336 334 334 333 333 331 330 329 327 325 323 320 317 315 313 308 299
311 313 317 321 325 327 331 335 337 339 344 346 346 347 347 347 346 347 349 349 349 348 346 344 342 341 339 337 336 335 334 333 332 333 331 329 327 326 323 320 317 313 307
311 312 315 318 322 326 329 333 335 338 342 345 347 349 349 349 349 350 350 351 351 351 350 348 345 343 342 340 339 338 337 336 335 336 335 333 331 329 327 324 320 317 312
308 312 313 315 319 324 327 330 334 338 341 343 345 347 348 349 350 351 352 353 354 353 353 351 348 346 344 343 342 341 340 340 339 338 338 337 335 332 329 325 322 318 316
304 310 312 316 319 321 325 329 333 337 340 342 345 346 348 350 351 352 352 353 354 354 354 353 351 349 348 346 345 344 343 343 342 341 340 338 335 334 332 329 327 323 319
305 308 311 313 316 320 325 329 332 336 340 344 347 349 348 349 351 352 352 353 354 353 354 355 354 352 350 349 349 349 348 345 344 344 345 343 341 340 337 334 332 329 325
307 307 308 309 313 318 323 327 331 335 339 344 346 348 349 351 352 353 353 354 354 354 355 356 356 354 354 353 352 351 349 347 345 345 345 344 344 344 342 341 339 336 334
307 307 307 308 313 316 320 325 330 337 342 345 348 349 350 350 351 351 352 354 355 355 355 356 357 357 357 355 354 352 350 348 347 347 346 346 346 345 344 345 346 346 346
308 308 307 307 310 313 320 326 332 338 343 345 347 349 350 349 349 350 352 353 354 355 355 357 357 358 358 357 357 356 355 353 352 352 351 349 349 348 347 345 345 346 348
307 310 310 309 310 313 318 323 332 338 341 342 344 346 348 350 349 351 353 355 355 356 356 357 358 358 358 359 359 360 359 357 356 355 353 351 350 351 351 348 345 342 342
304 310 314 316 316 317 319 320 327 334 337 340 341 343 346 348 350 351 353 355 356 357 357 357 357 358 359 1 2 3 2 1 0 359 357 355 354 355 354 353 350 346 342
304 307 311 314 315 316 319 321 325 330 334 337 340 343 345 347 350 352 354 355 356 357 358 360 359 359 0 2 3 4 4 4 3 2 2 1 1 360 358 357 356 355 352
301 307 312 312 312 314 318 321 324 329 333 336 338 341 344 345 347 352 355 357 357 358 0 2 3 3 4 4 4 5 6 7 6 6 6 7 6 5 2 1 360 360 359
297 306 313 311 312 317 320 322 325 328 330 334 336 340 343 345 348 352 356 358 359 360 2 4 5 4 4 5 6 6 7 8 8 8 8 9 9 9 8 8 8 7 5
Height
5781 5779 5776 5773 5771 5768 5766 5764 5762 5759 5757 5755 5753 5751 5749 5746 5743 5740 5737 5734 5730 5727 5723 5719 5715 5711 5707 5703 5699 5695 5691 5687 5684 5682 5678 5675 5672 5670 5669 5668 5667 5667 5668
5777 5775 5772 5769 5766 5764 5761 5760 5758 5755 5753 5751 5748 5746 5744 5741 5738 5735 5731 5728 5724 5720 5715 5711 5707 5702 5698 5694 5689 5685 5681 5676 5673 5670 5667 5664 5661 5659 5657 5656 5656 5656 5656
5774 5771 5768 5766 5763 5761 5758 5756 5754 5751 5749 5746 5744 5742 5739 5736 5732 5729 5725 5721 5717 5713 5708 5703 5699 5694 5689 5684 5680 5675 5671 5666 5662 5659 5656 5653 5650 5648 5646 5645 5644 5644 5644
5771 5768 5765 5763 5761 5758 5756 5753 5750 5747 5744 5742 5739 5737 5734 5730 5727 5723 5719 5715 5710 5705 5701 5696 5691 5686 5681 5676 5671 5666 5662 5657 5653 5649 5645 5642 5639 5637 5635 5634 5633 5632 5632
5768 5765 5763 5760 5758 5756 5753 5750 5747 5744 5741 5738 5735 5732 5729 5725 5721 5717 5713 5709 5704 5699 5693 5688 5683 5679 5673 5668 5663 5658 5653 5648 5644 5640 5636 5632 5629 5626 5625 5623 5623 5622 5622
5765 5763 5761 5758 5756 5753 5750 5747 5744 5741 5738 5735 5731 5728 5725 5721 5717 5712 5708 5703 5698 5692 5687 5681 5677 5671 5666 5660 5655 5650 5645 5640 5636 5631 5627 5623 5620 5617 5615 5613 5612 5612 5612
5763 5761 5759 5756 5754 5751 5748 5745 5742 5738 5735 5732 5728 5725 5721 5717 5712 5707 5702 5697 5692 5686 5681 5675 5670 5665 5659 5654 5648 5643 5638 5633 5628 5624 5619 5615 5612 5609 5606 5604 5602 5602 5602
5761 5759 5756 5754 5751 5748 5746 5743 5739 5736 5732 5729 5725 5722 5718 5713 5708 5703 5697 5692 5686 5680 5674 5669 5664 5658 5653 5647 5642 5637 5631 5627 5622 5617 5613 5608 5604 5601 5598 5596 5594 5593 5593
5758 5756 5754 5752 5749 5747 5744 5741 5737 5734 5731 5727 5723 5719 5715 5710 5705 5699 5693 5686 5681 5675 5669 5663 5658 5652 5647 5642 5636 5631 5626 5620 5615 5610 5606 5602 5597 5594 5590 5588 5586 5585 5585
5756 5754 5752 5750 5748 5745 5742 5739 5736 5732 5729 5725 5721 5716 5712 5706 5701 5695 5689 5682 5677 5671 5665 5659 5653 5647 5641 5636 5631 5626 5620 5615 5610 5605 5601 5596 5592 5588 5584 5582 5580 5579 5578
5754 5752 5750 5748 5746 5743 5740 5737 5734 5731 5727 5723 5719 5714 5709 5704 5698 5692 5686 5679 5673 5667 5660 5654 5648 5642 5637 5631 5626 5621 5616 5611 5605 5601 5596 5591 5587 5583 5579 5576 5574 5573 5571
5752 5750 5748 5746 5744 5741 5738 5735 5732 5729 5725 5721 5717 5712 5706 5701 5695 5689 5683 5676 5670 5663 5656 5650 5644 5638 5633 5627 5622 5616 5611 5606 5601 5596 5592 5587 5583 5579 5575 5572 5569 5567 5565
5750 5748 5746 5744 5742 5739 5737 5734 5731 5727 5723 5719 5714 5709 5704 5699 5693 5686 5680 5673 5666 5660 5653 5646 5640 5634 5629 5623 5618 5612 5607 5602 5597 5592 5587 5583 5579 5574 5570 5567 5564 5561 5559
5748 5746 5744 5742 5740 5737 5735 5732 5729 5725 5721 5717 5712 5707 5702 5696 5690 5684 5678 5671 5664 5657 5650 5643 5637 5631 5625 5620 5614 5609 5604 5599 5593 5589 5584 5579 5575 5571 5567 5563 5561 5558 5556
5745 5743 5741 5739 5738 5735 5733 5730 5727 5723 5719 5715 5710 5705 5699 5694 5688 5682 5676 5669 5662 5655 5648 5641 5635 5629 5623 5617 5612 5606 5601 5595 5590 5585 5581 5576 5572 5568 5564 5560 5558 5555 5553
5742 5740 5739 5737 5735 5733 5730 5727 5724 5721 5717 5712 5708 5703 5698 5692 5686 5680 5674 5667 5660 5653 5646 5639 5633 5627 5621 5615 5609 5603 5598 5593 5588 5583 5578 5574 5570 5565 5561 5558 5554 5552 5549
5740 5738 5736 5734 5732 5730 5728 5725 5722 5718 5714 5710 5705 5701 5696 5690 5684 5678 5672 5666 5659 5652 5645 5638 5631 5625 5619 5613 5607 5601 5595 5590 5585 5580 5575 5571 5567 5563 5559 5555 5551 5548 5545
5737 5735 5734 5732 5730 5728 5725 5722 5719 5716 5712 5708 5703 5699 5694 5688 5683 5677 5671 5664 5657 5650 5644 5636 5630 5623 5617 5610 5604 5599 5593 5587 5582 5577 5573 5568 5564 5560 5556 5552 5548 5545 5542
5734 5732 5731 5729 5727 5725 5722 5719 5716 5713 5709 5706 5702 5697 5692 5687 5681 5676 5669 5663 5656 5649 5642 5635 5628 5622 5615 5609 5602 5596 5590 5585 5580 5575 5570 5565 5561 5557 5553 5549 5545 5542 5539
5731 5729 5727 5725 5723 5721 5719 5716 5713 5710 5707 5704 5700 5695 5690 5685 5680 5674 5668 5661 5655 5648 5641 5634 5627 5620 5614 5607 5601 5594 5589 5583 5578 5572 5567 5563 5559 5554 5550 5546 5543 5540 5536
5727 5725 5723 5722 5720 5718 5715 5713 5711 5708 5705 5702 5698 5693 5689 5684 5678 5672 5666 5660 5653 5646 5640 5633 5626 5619 5613 5606 5599 5593 5587 5581 5576 5570 5566 5561 5556 5552 5548 5544 5540 5537 5534
5724 5722 5720 5718 5717 5715 5713 5711 5708 5706 5703 5700 5696 5691 5687 5682 5676 5671 5665 5658 5652 5645 5638 5632 5625 5618 5612 5605 5599 5592 5586 5580 5574 5569 5564 5559 5555 5550 5546 5542 5539 5535 5532
5721 5719 5717 5715 5714 5712 5710 5708 5706 5703 5700 5697 5693 5689 5685 5680 5675 5669 5663 5657 5651 5644 5638 5631 5624 5618 5611 5605 5598 5592 5586 5579 5573 5567 5562 5557 5553 5549 5545 5541 5537 5533 5531
5718 5716 5714 5712 5711 5709 5707 5705 5703 5700 5697 5694 5691 5687 5683 5678 5673 5668 5662 5656 5650 5643 5637 5630 5623 5617 5611 5605 5598 5592 5585 5579 5572 5567 5561 5556 5552 5548 5544 5540 5536 5532 5529
5715 5713 5712 5710 5708 5706 5704 5702 5700 5697 5695 5691 5688 5684 5680 5676 5671 5666 5661 5655 5649 5642 5636 5629 5623 5617 5611 5605 5599 5592 5586 5579 5573 5567 5561 5556 5552 5548 5544 5540 5536 5532 5529
5711 5710 5709 5707 5705 5704 5702 5699 5697 5694 5692 5689 5686 5682 5678 5674 5669 5665 5660 5654 5649 5642 5636 5630 5623 5618 5612 5606 5600 5593 5587 5581 5574 5568 5563 5558 5553 5549 5545 5540 5536 5532 5529